Overview Statistics Trail Chart Weather Telemetry Raw packets
 

This is the latest recevied weather packets stored in our database for station/object K7CTM. If no packets are shown the sender has not sent any weather packets the latest 10 day(s).

<< 102 103 104 105 106 107 108 >>
Time Temp. Humidity Pressure Rain* Wind** Luminosity Snow
1787844519 20° C 49% 1030.4 hPa 0 mm - 367 W/m² -
1787844215 20° C 49% 1030.4 hPa 0 mm - 257 W/m² -
1787843913 20° C 49% 1030.5 hPa 0 mm - 309 W/m² -
1787843609 19.44° C 51% 1030.7 hPa 0 mm - 294 W/m² -
1787843305 18.89° C 54% 1030.5 hPa 0 mm - 307 W/m² -
1787843001 18.89° C 55% 1030.6 hPa 0 mm - 295 W/m² -
1787842700 18.33° C 55% 1030.7 hPa 0 mm - 275 W/m² -
1787842396 17.22° C 57% 1030.7 hPa 0 mm - 250 W/m² -
1787842095 17.22° C 57% 1030.8 hPa 0 mm - 222 W/m² -
1787841791 16.67° C 58% 1030.7 hPa 0 mm - 213 W/m² -
1787841486 16.11° C 59% 1030.8 hPa 0 mm - 196 W/m² -
1787841185 16.67° C 58% 1030.7 hPa 0 mm - 187 W/m² -
1787840880 16.11° C 61% 1030.8 hPa 0 mm - 179 W/m² -
1787840575 16.11° C 60% 1030.8 hPa 0 mm - 160 W/m² -
1787840271 16.11° C 62% 1031 hPa 0 mm - 161 W/m² -
1787839970 16.11° C 63% 1030.8 hPa 0 mm - 151 W/m² -
1787839666 15.56° C 64% 1030.8 hPa 0 mm - 137 W/m² -
1787839365 15.56° C 64% 1031 hPa 0 mm - 111 W/m² -
1787839060 15.56° C 66% 1031.1 hPa 0 mm - 96 W/m² -
1787838759 15° C 69% 1031.2 hPa 0 mm - 92 W/m² -
1787838459 14.44° C 71% 1031 hPa 0 mm - 85 W/m² -
1787838162 14.44° C 71% 1031.1 hPa 0 mm - 77 W/m² -
1787837853 13.89° C 74% 1031.1 hPa 0 mm - 69 W/m² -
1787837547 13.89° C 75% 1031 hPa 0 mm - 61 W/m² -
1787837247 13.89° C 74% 1031.1 hPa 0 mm - 53 W/m² -

* Rain latest hour (hover to see other rain measurements)
** Current wind speed in m/s (hover to see current wind gust speed)